Flag for Ukraine Weather past 2 weeks in Kyiv, Ukraine

Now
77 °F

Passing clouds.


Feels Like: 79 °F
Forecast: 62 / 78 °F
Wind: 6 mph from Northwest

Location: Kyiv

Current Time: Sep 3, 2015 at 2:26:09 PM

Latest Report: Sep 3, 2015 at 2:00 PM


Visibility: N/A

Pressure: 29.89 "Hg

Humidity: 57%

Dew point: 61 °F

Location of KyivLocation

Historic Weather in Kyiv — Graph

°F

Kyiv temperature yesterday

Maximum temperature yesterday: 95 °F (at 2:00 PM)
Minimum temperature yesterday: 64 °F (at 6:00 AM)
Average temperature yesterday: 81 °F

Past Weeks' High & Low Weather Summary

 TemperatureHumidityPressure
High95 °F (Sep 1, 4:00 PM)100% (Aug 22, 3:30 AM)30.33 "Hg (Aug 22, 3:30 AM)
Low48 °F (Aug 22, 4:30 AM)26% (Sep 1, 6:00 PM)29.74 "Hg (Sep 2, 1:00 PM)
Average70 °F54%30.09 "Hg
* Reported Aug 19 1:00 PM — Sep 3 1:00 PM, Kyiv, Weather by CustomWeather, © 2015

Note: Actual official high and low records may vary slightly from our data, if they occured in-between our weather recording intervals... More about our weather records

Advertising

Kyiv weather history for previous 24 hours

 ConditionsComfort  
Time TempWeatherWind HumidityBarometerVisibility
1:00 PM
Thu, Sep 3
75 °FPassing clouds.6 mph61%29.89 "HgN/A
12:30 PM72 °FBroken clouds.No wind73%29.89 "Hg4 mi
12:00 PM73 °FSprinkles. Broken clouds.6 mph65%29.92 "Hg5 mi
11:30 AM73 °FPartly sunny.8 mph69%29.89 "Hg4 mi
11:00 AM72 °FPartly sunny.13 mph69%29.92 "Hg4 mi
10:30 AM72 °FBroken clouds.17 mph73%29.92 "Hg5 mi
10:00 AM72 °FClear.15 mph73%29.89 "Hg5 mi
9:30 AM72 °FClear.15 mph73%29.89 "Hg4 mi
9:00 AM70 °FClear.17 mph78%29.86 "Hg3 mi
8:30 AM70 °FClear.10 mph78%29.86 "Hg2 mi
8:00 AM70 °FClear.10 mph73%29.86 "Hg2 mi
7:30 AM70 °FPartly sunny.10 mph78%29.83 "Hg1 mi
7:00 AM68 °FPassing clouds.10 mph83%29.83 "Hg1 mi
6:30 AM68 °FPassing clouds.10 mph78%29.83 "Hg1 mi
6:00 AM68 °FPassing clouds.8 mph78%29.83 "Hg1 mi
5:30 AM68 °FPassing clouds.6 mph78%29.83 "Hg2 mi
5:00 AM68 °FPassing clouds.6 mph73%29.83 "Hg2 mi
4:30 AM68 °FPassing clouds.6 mph73%29.83 "Hg3 mi
4:00 AM68 °FPassing clouds.6 mph69%29.83 "Hg4 mi
3:30 AM68 °FPassing clouds.6 mph69%29.83 "Hg5 mi
3:00 AM70 °FPassing clouds.6 mph60%29.80 "Hg6 mi
2:30 AM70 °FPartly cloudy.6 mph60%29.80 "HgN/A
2:00 AM72 °FPartly cloudy.6 mph57%29.80 "HgN/A
1:30 AM73 °FPartly cloudy.8 mph50%29.80 "HgN/A
12:30 AM75 °FClear.8 mph44%29.80 "Hg10 mi
12:00 AM77 °FClear.6 mph42%29.80 "Hg10 mi
11:30 PM
Wed, Sep 2
77 °FClear.6 mph42%29.80 "Hg10 mi
11:00 PM79 °FClear.8 mph42%29.80 "Hg10 mi
10:30 PM81 °FClear.8 mph42%29.80 "Hg10 mi
10:00 PM81 °FClear.8 mph42%29.80 "Hg10 mi
9:30 PM84 °FClear.13 mph40%29.77 "Hg10 mi
9:00 PM86 °FClear.8 mph40%29.77 "Hg10 mi
8:30 PM84 °FSunny.3 mph43%29.77 "Hg10 mi
8:00 PM86 °FPartly sunny.6 mph40%29.74 "HgN/A
7:30 PM88 °FPartly sunny.6 mph38%29.74 "HgN/A
7:00 PM88 °FPartly sunny.8 mph38%29.74 "HgN/A
6:30 PM90 °FPartly sunny.10 mph36%29.74 "HgN/A
6:00 PM91 °FPartly sunny.10 mph32%29.74 "HgN/A
5:30 PM91 °FSunny.10 mph32%29.74 "Hg10 mi
5:00 PM93 °FSunny.15 mph30%29.74 "Hg10 mi
4:30 PM95 °FSunny.15 mph26%29.74 "Hg10 mi
4:00 PM95 °FPassing clouds.15 mph26%29.74 "HgN/A
3:30 PM95 °FPassing clouds.15 mph26%29.74 "HgN/A
3:00 PM93 °FSunny.15 mph28%29.74 "Hg10 mi
2:30 PM93 °FSunny.17 mph30%29.74 "Hg10 mi
2:00 PM95 °FSunny.17 mph26%29.74 "Hg10 mi
Weather by CustomWeather, © 2015

See weather overviewHow to use our weather pages